sat.trackr.live / text

‹ back to catalog

STARLINK-30991

NORAD 58484 · 2023-186M

PAYLOAD ACTIVE UNKNOWN

§ Identity

Operator
Country
US
Launch date
2023-12-03
Launch site
AFETR
Launch vehicle
Mass (kg)
RCS (m²)

Purposes: comms

External: N2YO · Heavens-Above · Gunter

§ Orbital elements

Epoch: 2026-05-24T22:47:55.058784Z

Period
94.27 min
Inclination
43.0032°
Eccentricity
0.0001778
Mean motion
15.27568532 rev/d
Perigee alt
481.9 km
Apogee alt
484.3 km
Semi-major
6,861.2 km
B*
-1.1611e-5
RAAN
352.5819°
Arg perigee
262.7450°
Mean anomaly
97.3200°
Rev number
13,754

§ Raw data

STARLINK-309911 58484U 23186M   26144.94994281 -.00000582  00000+0 -11611-4 0  99922 58484  43.0032 352.5819 0001778 262.7450  97.3200 15.27568532137540

JSON: /api/v1/satellites/58484 · /tle

For live sub-satellite position, see the globe view (requires WebGL).

§ Visibility from observer

Set your observer location to see the next 7 days of passes ≥ 10°. The values pass through the URL so the page stays shareable.

No JS? Fill the form by hand. The geolocation button needs JavaScript.